This demonstration page uses our WeatherBlox Daily Observations layout. Learn more.

Left ArrowRight Arrow

39.92423, -83.80882

Hourly Observations for July 4, 2019

Temp ( °F °C ) Dew Point ( °F °C ) Humidity (%) Winds ( mph kmh ) Pressure ( in mb ) Visibility ( mi km ) Precip ( " mm )
12:56 am 00:56 Clear with Mist and Fog 69 20.6 69 20.6 100 100 ESE 3 6 29.98 1015 3 5 N/A
12:59 am 00:59 Clear with Mist and Fog 70 21 70 21 100 100 SE 3 6 29.97 1015 2 3 N/A
1:11 am 01:11 Clear with Mist and Fog 70 21 70 21 100 100 SSE 3 6 29.97 1015 4 6 N/A
2:56 am 02:56 Clear with Mist and Fog 68 20 68 20 100 100 SSE 5 7 29.98 1015 5 8 N/A
3:56 am 03:56 Clear with Mist and Fog 68 20 68 20 100 100 N N/A 29.98 1015 4 6 N/A
4:56 am 04:56 Clear with Mist and Fog 69 20.6 69 20.6 100 100 S 6 9 29.98 1015 5 8 N/A
5:38 am 05:38 Partly Cloudy with Mist and Fog 70 21 70 21 100 100 S 3 6 29.97 1015 4 6 N/A
5:45 am 05:45 Mostly Cloudy with Mist and Fog 70 21 70 21 100 100 N N/A 29.97 1015 4 6 N/A
5:56 am 05:56 Cloudy with Mist and Fog 69 20.6 69 20.6 100 100 N N/A 29.99 1016 4 6 N/A
6:10 am 06:10 Cloudy with Mist and Fog 70 21 70 21 100 100 N N/A 29.98 1015 3 4 N/A
6:21 am 06:21 Cloudy with Mist and Fog 70 21 70 21 100 100 SSE 5 7 29.98 1015 1 2 N/A
6:32 am 06:32 Cloudy with Fog 70 21 70 21 100 100 SSE 5 7 29.98 1015 1 1 N/A
6:47 am 06:47 Cloudy with Mist and Fog 70 21 70 21 100 100 N N/A 29.98 1015 1 2 N/A
6:56 am 06:56 Cloudy with Mist and Fog 69 20.6 69 20.6 100 100 SSE 3 6 30.00 1016 1 2 N/A
7:02 am 07:02 Cloudy with Mist and Fog 70 21 70 21 100 100 N N/A 29.99 1016 1 1 N/A
7:11 am 07:11 Cloudy with Fog 70 21 70 21 100 100 SSE 3 6 29.99 1016 0 0 N/A
7:37 am 07:37 Cloudy with Mist and Fog 70 21 70 21 100 100 S 3 6 30.00 1016 1 1 N/A
7:41 am 07:41 Cloudy with Mist and Fog 70 21 70 21 100 100 N N/A 30.01 1016 1 2 N/A
7:56 am 07:56 Cloudy with Mist and Fog 70 21.1 70 21.1 100 100 S 3 6 30.03 1017 2 3 N/A
8:56 am 08:56 Cloudy with Mist and Fog 71 21.7 71 21.7 100 100 S 3 6 30.04 1017 2 2 N/A
9:31 am 09:31 Cloudy with Mist and Fog 72 22 72 22 100 100 SSE 3 6 30.02 1017 2 3 N/A
9:42 am 09:42 Cloudy with Mist and Fog 72 22 72 22 100 100 N N/A 30.02 1017 2 2 N/A
9:56 am 09:56 Cloudy with Mist and Fog 72 22.2 72 22.2 100 100 SW 3 6 30.05 1018 2 3 N/A
10:56 am 10:56 Cloudy with Mist and Fog 73 22.8 73 22.8 100 100 S 5 7 30.05 1018 4 6 N/A
11:38 am 11:38 Cloudy with Mist and Fog 73 23 73 23 100 100 S 3 6 30.03 1017 3 4 N/A
11:51 am 11:51 Cloudy with Mist and Fog 73 23 73 23 100 100 SSE 3 6 30.03 1017 3 5 N/A
11:56 am 11:56 Cloudy with Mist and Fog 74 23.3 73 22.8 97 97 SE 3 6 30.06 1018 4 6 N/A
12:16 pm 12:16 Mostly Cloudy with Mist and Fog 75 24 73 23 94 94 N N/A 30.03 1017 6 10 N/A
12:46 pm 12:46 Partly Cloudy 79 26 73 23 84 84 S 6 9 30.02 1017 9 14 N/A
12:53 pm 12:53 Mostly Cloudy 79 26 73 23 84 84 S 6 9 30.02 1017 10 16 N/A
12:56 pm 12:56 Mostly Cloudy 79 26.1 74 23.3 85 85 VRB 5 7 30.05 1018 10 16 N/A
1:56 pm 13:56 Partly Cloudy 82 27.8 75 23.9 79 79 VRB 5 7 30.04 1017 10 16 N/A
2:24 pm 14:24 Mostly Cloudy 81 27 73 23 79 79 N N/A 30.01 1016 10 16 N/A
2:53 pm 14:53 Partly Cloudy 82 28 73 23 74 74 N N/A 29.98 1015 10 16 N/A
2:56 pm 14:56 Mostly Sunny 83 28.3 73 22.8 72 72 N N/A 30.02 1017 10 16 N/A
3:56 pm 15:56 Sunny 84 28.9 75 23.9 74 74 SSW 6 9 30.00 1016 10 16 N/A
4:56 pm 16:56 Sunny 85 29.4 73 22.8 68 68 N N/A 29.99 1016 10 16 N/A
5:56 pm 17:56 Sunny 85 29.4 73 22.8 68 68 N N/A 29.97 1015 10 16 N/A
6:56 pm 18:56 Sunny 84 28.9 71 21.7 65 65 N N/A 29.98 1015 10 16 N/A
7:56 pm 19:56 Sunny 82 27.8 74 23.3 77 77 SSE 5 7 29.99 1016 10 16 N/A
8:56 pm 20:56 Sunny 80 26.7 76 24.4 87 87 S 3 6 30.00 1016 10 16 N/A
9:56 pm 21:56 Clear 78 25.6 75 23.9 90 90 SSE 7 11 30.03 1017 10 16 N/A
10:56 pm 22:56 Mostly Clear 77 25 73 22.8 88 88 S 5 7 30.04 1017 10 16 N/A
11:56 pm 23:56 Clear 76 24.4 74 23.3 94 94 SSE 5 7 30.04 1017 10 16 N/A

Powered by AerisWeather